TimeEEST,TemperatureF,Dew PointF,Humidity,Sea Level PressureIn,VisibilityMPH,Wind Direction,Wind SpeedMPH,Gust SpeedMPH,PrecipitationIn,Events,Conditions,WindDirDegrees,DateUTC
1:50 AM,69.8,57.2,64,29.95,-9999.0,Variable,3.5,-,N/A,,Clear,0,2012-10-02 22:50:00
2:50 AM,68.0,57.2,68,29.92,-9999.0,Calm,Calm,-,N/A,,Clear,0,2012-10-02 23:50:00
3:50 AM,68.0,57.2,68,29.92,-9999.0,Calm,Calm,-,N/A,,Clear,0,2012-10-03 00:50:00
5:50 AM,71.6,60.8,69,29.92,-9999.0,NW,5.8,-,N/A,,Clear,320,2012-10-03 02:50:00
6:20 AM,73.4,59.0,61,29.92,-9999.0,Variable,3.5,-,N/A,,Clear,0,2012-10-03 03:20:00
6:50 AM,71.6,60.8,69,29.92,-9999.0,Variable,2.3,-,N/A,,Clear,0,2012-10-03 03:50:00
7:20 AM,69.8,60.8,73,29.92,-9999.0,Calm,Calm,-,N/A,,Clear,0,2012-10-03 04:20:00
7:50 AM,71.6,60.8,69,29.92,6.2,Variable,3.5,-,N/A,,Partly Cloudy,0,2012-10-03 04:50:00
8:20 AM,73.4,60.8,65,29.92,6.2,Variable,3.5,-,N/A,,Partly Cloudy,0,2012-10-03 05:20:00
8:50 AM,75.2,60.8,61,29.92,-9999.0,WNW,5.8,-,N/A,,Clear,300,2012-10-03 05:50:00
9:20 AM,75.2,60.8,61,29.92,-9999.0,Calm,Calm,-,N/A,,Clear,0,2012-10-03 06:20:00
9:50 AM,78.8,59.0,51,29.92,-9999.0,SSE,4.6,-,N/A,,Clear,160,2012-10-03 06:50:00
10:20 AM,80.6,59.0,48,29.92,-9999.0,Variable,3.5,-,N/A,,Clear,0,2012-10-03 07:20:00
10:50 AM,84.2,57.2,40,29.92,-9999.0,South,4.6,-,N/A,,Clear,180,2012-10-03 07:50:00
11:20 AM,86.0,55.4,35,29.92,-9999.0,South,5.8,-,N/A,,Clear,190,2012-10-03 08:20:00
11:50 AM,84.2,55.4,37,29.92,6.2,South,4.6,-,N/A,,Partly Cloudy,190,2012-10-03 08:50:00
12:20 PM,87.8,53.6,31,29.92,6.2,SW,9.2,-,N/A,,Partly Cloudy,220,2012-10-03 09:20:00
12:50 PM,86.0,53.6,33,29.92,6.2,SW,9.2,-,N/A,,Partly Cloudy,220,2012-10-03 09:50:00
1:20 PM,87.8,53.6,31,29.89,6.2,SSW,12.7,-,N/A,,Partly Cloudy,210,2012-10-03 10:20:00
1:50 PM,87.8,51.8,29,29.89,6.2,SSW,11.5,-,N/A,,Partly Cloudy,210,2012-10-03 10:50:00
2:20 PM,86.0,51.8,31,29.89,6.2,SW,11.5,-,N/A,,Partly Cloudy,220,2012-10-03 11:20:00
2:50 PM,86.0,51.8,31,29.89,6.2,SSW,13.8,-,N/A,,Scattered Clouds,200,2012-10-03 11:50:00
3:20 PM,87.8,48.2,25,29.86,6.2,South,13.8,25.3,N/A,,Scattered Clouds,190,2012-10-03 12:20:00
3:50 PM,89.6,51.8,27,29.86,6.2,SSW,13.8,-,N/A,,Scattered Clouds,210,2012-10-03 12:50:00
4:20 PM,89.6,50.0,26,29.86,6.2,SW,8.1,-,N/A,,Scattered Clouds,230,2012-10-03 13:20:00
4:50 PM,89.6,50.0,26,29.86,6.2,WNW,10.4,-,N/A,,Scattered Clouds,290,2012-10-03 13:50:00
5:20 PM,87.8,50.0,27,29.86,6.2,West,9.2,-,N/A,,Scattered Clouds,280,2012-10-03 14:20:00
5:50 PM,86.0,51.8,31,29.83,6.2,West,10.4,-,N/A,,Scattered Clouds,270,2012-10-03 14:50:00
6:20 PM,86.0,50.0,29,29.83,6.2,WNW,11.5,-,N/A,,Scattered Clouds,300,2012-10-03 15:20:00
6:50 PM,84.2,48.2,29,29.86,6.2,West,5.8,-,N/A,,Scattered Clouds,280,2012-10-03 15:50:00
7:50 PM,80.6,57.2,45,29.86,6.2,North,6.9,-,N/A,,Scattered Clouds,360,2012-10-03 16:50:00
8:20 PM,78.8,59.0,51,29.86,6.2,NNW,5.8,-,N/A,,Scattered Clouds,340,2012-10-03 17:20:00
8:50 PM,78.8,60.8,54,29.89,6.2,North,5.8,-,N/A,,Partly Cloudy,350,2012-10-03 17:50:00
9:20 PM,78.8,59.0,51,29.89,-9999.0,North,6.9,-,N/A,,Clear,10,2012-10-03 18:20:00
9:50 PM,78.8,57.2,47,29.89,-9999.0,North,8.1,-,N/A,,Clear,350,2012-10-03 18:50:00
10:20 PM,77.0,57.2,50,29.89,-9999.0,WNW,4.6,-,N/A,,Clear,300,2012-10-03 19:20:00
10:50 PM,77.0,59.0,54,29.89,-9999.0,Calm,Calm,-,N/A,,Clear,0,2012-10-03 19:50:00
11:20 PM,77.0,60.8,57,29.89,-9999.0,NNW,6.9,-,N/A,,Clear,340,2012-10-03 20:20:00
11:50 PM,75.2,59.0,57,29.89,-9999.0,NW,4.6,-,N/A,,Clear,320,2012-10-03 20:50:00